Regional Weather Roundup
Issued by NWS

Home | Current Version | Previous Version | Graphics & Text | Print | Product List | Glossary On
Versions: 1 2 3 4 5 6 7 8 9 10 11 12 13 14 15 16 17 18 19 20 21 22 23 24 25 26 27 28 29 30 31 32 33 34 35 36 37 38 39 40 41 42 43 44 45 46 47 48 49 50
019
ASUS45 KBOU 231007
RWRCO

WEATHER ROUNDUP FOR COLORADO
NATIONAL WEATHER SERVICE DENVER/BOULDER CO
400 AM MDT MON MAY 23 2016

NOTE: "FAIR" INDICATES FEW OR NO CLOUDS BELOW 12000 FEET WITH NO
SIGNIFICANT WEATHER AND/OR OBSTRUCTIONS TO VISIBILITY.

COZ001>005-013-030-031-231100-
...NORTHWEST COLORADO...

CITY           SKY/WX    TMP DP  RH WIND       PRES   REMARKS
CRAIG          FAIR      30  28  92 E5        30.03R WCI  25
HAYDEN         FAIR      34  28  80 E7        30.02S WCI  28
MEEKER         FAIR      34  29  82 VRB3      30.00S
MOUNT WERNER   NOT AVBL
STEAMBOAT SPGS FAIR      32  30  91 CALM      30.03S
WALDEN         FAIR      30  25  80 CALM      30.05S
$$

COZ006>008-011-231100-
...WEST CENTRAL VALLEYS...

CITY           SKY/WX    TMP DP  RH WIND       PRES   REMARKS
GRAND JUNCTION FAIR      50  22  33 VRB3      29.92S
MONTROSE       FAIR      42  26  53 S5        29.97S
EAGLE          MOCLDY    36  27  69 E3        30.04R
RIFLE          FAIR      39  27  62 E6        29.98R
DELTA          FAIR      44  23  43 NE5       29.95R
NUCLA          FAIR      43  27  52 SE9       29.97F
$$

COZ017>023-064>068-231100-
...SOUTHWEST COLORADO...

CITY           SKY/WX    TMP DP  RH WIND       PRES   REMARKS
DURANGO        FAIR      36  25  64 N7        29.99S
CORTEZ         FAIR      35  27  72 CALM      29.95R
PAGOSA SPRINGS FAIR      36  24  61 CALM      30.05S
TELLURIDE      FAIR      38  24  57 SE6       30.08S
WOLF CREEK PAS FAIR      28  18  64 SW18G30   30.20R WCI  16
$$

COZ009-010-012-014-032>034-037-058>063-231100-
...CENTRAL COLORADO...

CITY           SKY/WX    TMP DP  RH WIND       PRES   REMARKS
ASPEN          MOCLDY    32  26  78 S3        30.02S
BUENA VISTA    FAIR      33  23  65 W5        30.03S WCI  29
COPPER MTN     NOT AVBL
BERTHOUD PASS  FAIR      25  16  68 SW10      30.17S WCI  15
COTTONWOOD PAS FAIR      43  18  36 CALM      30.10R
GUNNISON       FAIR      36  25  64 N5        30.06S
KREMMLING      FAIR      34  30  86 CALM      30.06S
LEADVILLE      MOCLDY    28  20  71 CALM      30.08S
MONARCH PASS   FAIR      28  19  69 SW14      30.27S WCI  17
SALIDA         FAIR      43  24  48 W7        30.09S
SUNLIGHT       MOCLDY    32  19  59 CALM      30.14S
WILKERSON PASS FAIR      32  19  59 SW6       30.16F WCI  26
$$

COZ069>075-231100-
...SAN LUIS VALLEY/SANGRE DE CRISTO MOUNTAINS...

CITY           SKY/WX    TMP DP  RH WIND       PRES   REMARKS
ALAMOSA        FAIR      36  26  67 SW8       30.01S
LA VETA PASS   FAIR      39  21  48 S8        30.13F
SAGUACHE       FAIR      37  27  65 NW13      30.03S
$$

COZ035-036-038>040-231100-
...NORTHERN COLORADO FRONT RANGE...

CITY           SKY/WX    TMP DP  RH WIND       PRES   REMARKS
DENVER INTL AP MOCLDY    45  40  82 S8        29.93R
DMNS CITY PARK   N/A     50  40  67 E9        29.93S
AURORA         MOCLDY    46  38  74 S10       29.94S
FRONT RANGE AP NOT AVBL
ERIE MUNI ARPT FAIR      49  41  75 S7        29.92S
BOULDER MUN AP FAIR      50  43  76 S3        29.91S
CENTENNIAL     MOCLDY    48  39  71 SE12      29.94S
BROOMFIELD     FAIR      50  41  71 SE8       29.93F
FORT COLLINS   FAIR      46  39  76 S5        29.93R
LONGMONT       FAIR      51  42  70 SE3       29.93S
$$

COZ041-046-047-076>085-087-088-231100-
...PIKES PEAK/PALMER DIVIDE AND SOUTHERN FOOTHILLS...

CITY           SKY/WX    TMP DP  RH WIND       PRES   REMARKS
COLO. SPRINGS  FAIR      50  33  52 N8        29.95R
A. F. ACADEMY  FAIR      41  37  87 N10       29.95S
SCHRIEVER AFB  NOT AVBL
ELLICOTT       FAIR     N/A N/A N/A NE17G29   29.91R
FALCON         FAIR      42  32  66 N12       29.97S
FORT CARSON    FAIR      46  39  77 NW8       29.92S
LIMON          FAIR      44  35  70 N13       29.92R
MONUMENT HILL  FAIR      37  34  87 SE8       29.99F
TRINIDAD       FAIR      49  34  56 N10       29.91R
$$

COZ042>045-048>051-090-091-231100-
...NORTHEAST COLORADO...

CITY           SKY/WX    TMP DP  RH WIND       PRES   REMARKS
GREELEY ARPT   FAIR      45  37  76 SW7       29.93R
AKRON          CLOUDY    48  36  63 N5        29.91R
BURLINGTON     MOCLDY    55  43  63 NE12      29.88R
WRAY           CLOUDY    55  43  62 CALM      29.88R
STERLING       MOCLDY    50  37  62 CALM      29.88R
HOLYOKE        MOCLDY    55  46  71 W3        29.89R
FORT MORGAN    FAIR      49  34  55 N14       29.90F
$$

COZ086-089-092>099-231100-
...SOUTHEAST COLORADO...

CITY           SKY/WX    TMP DP  RH WIND       PRES   REMARKS
PUEBLO         FAIR      52  40  63 VRB3      29.90R
LA JUNTA       FAIR      55  43  63 N12       29.84R
LAMAR          FAIR      57  53  86 NW10      29.77R
SPRINGFIELD      N/A     54  53  97 SW9       29.81S
$$




USA.gov is the U.S. government's official web portal to all federal, state and local government web resources and services.